TimeCDT,TemperatureF,Dew PointF,Humidity,Sea Level PressureIn,VisibilityMPH,Wind Direction,Wind SpeedMPH,Gust SpeedMPH,PrecipitationIn,Events,Conditions,WindDirDegrees,DateUTC
12:51 AM,68.0,62.1,81,29.99,10.0,Calm,Calm,-,N/A,,Clear,0,2012-11-03 05:51:00
1:51 AM,66.0,62.1,87,29.99,10.0,Calm,Calm,-,N/A,,Clear,0,2012-11-03 06:51:00
2:51 AM,66.0,63.0,90,29.99,10.0,SSW,3.5,-,N/A,,Clear,200,2012-11-03 07:51:00
3:51 AM,64.9,63.0,93,29.98,10.0,Calm,Calm,-,N/A,,Clear,0,2012-11-03 08:51:00
4:51 AM,64.0,62.1,93,29.99,10.0,Calm,Calm,-,N/A,,Clear,0,2012-11-03 09:51:00
5:20 AM,64.0,61.0,90,30.02,9.0,Calm,Calm,-,N/A,,Scattered Clouds,0,2012-11-03 10:20:00
5:28 AM,64.0,62.1,93,30.02,9.0,Calm,Calm,-,N/A,,Mostly Cloudy,0,2012-11-03 10:28:00
5:51 AM,64.0,63.0,96,30.00,10.0,Calm,Calm,-,N/A,,Overcast,0,2012-11-03 10:51:00
6:26 AM,64.9,63.0,93,30.03,5.0,Calm,Calm,-,N/A,,Overcast,0,2012-11-03 11:26:00
6:49 AM,64.4,62.6,94,30.04,1.8,Calm,Calm,-,N/A,,Overcast,0,2012-11-03 11:49:00
6:51 AM,64.9,63.0,93,30.02,1.5,Calm,Calm,-,N/A,,Overcast,0,2012-11-03 11:51:00
7:02 AM,64.9,64.0,97,30.04,0.8,Calm,Calm,-,N/A,,Mist,0,2012-11-03 12:02:00
7:51 AM,64.9,64.0,97,30.04,0.5,Calm,Calm,-,N/A,Fog,Fog,0,2012-11-03 12:51:00
8:15 AM,64.9,64.0,97,30.07,0.2,Calm,Calm,-,N/A,Fog,Fog,0,2012-11-03 13:15:00
8:51 AM,64.9,64.9,100,30.06,0.2,Calm,Calm,-,N/A,Fog,Fog,0,2012-11-03 13:51:00
9:19 AM,66.0,66.0,100,30.09,1.0,Calm,Calm,-,N/A,,Overcast,0,2012-11-03 14:19:00
9:24 AM,66.0,64.9,96,30.09,3.0,East,3.5,-,N/A,,Overcast,100,2012-11-03 14:24:00
9:51 AM,68.0,66.9,96,30.07,6.0,Calm,Calm,-,N/A,,Overcast,0,2012-11-03 14:51:00
10:17 AM,72.0,66.9,84,30.10,10.0,Variable,3.5,-,N/A,,Scattered Clouds,0,2012-11-03 15:17:00
10:51 AM,73.0,66.0,79,30.08,10.0,SW,6.9,-,N/A,,Scattered Clouds,220,2012-11-03 15:51:00
10:58 AM,73.9,66.9,79,30.11,10.0,Variable,6.9,-,N/A,,Mostly Cloudy,0,2012-11-03 15:58:00
11:06 AM,75.0,66.0,73,30.11,10.0,SSW,6.9,-,N/A,,Mostly Cloudy,200,2012-11-03 16:06:00
11:40 AM,77.0,66.0,69,30.11,10.0,Variable,6.9,-,N/A,,Mostly Cloudy,0,2012-11-03 16:40:00
11:51 AM,75.9,64.9,69,30.08,10.0,Variable,4.6,-,N/A,,Scattered Clouds,0,2012-11-03 16:51:00
12:51 PM,81.0,64.9,58,30.05,10.0,Variable,4.6,-,N/A,,Clear,0,2012-11-03 17:51:00
1:51 PM,84.0,64.0,51,30.01,10.0,Variable,5.8,-,N/A,,Partly Cloudy,0,2012-11-03 18:51:00
2:51 PM,84.9,61.0,44,29.98,10.0,Calm,Calm,-,N/A,,Partly Cloudy,0,2012-11-03 19:51:00
3:51 PM,84.0,57.9,41,29.97,10.0,Variable,3.5,-,N/A,,Partly Cloudy,0,2012-11-03 20:51:00
4:51 PM,86.0,53.1,32,29.96,10.0,South,4.6,-,N/A,,Scattered Clouds,170,2012-11-03 21:51:00
5:51 PM,73.9,59.0,59,30.00,10.0,ESE,11.5,18.4,N/A,,Partly Cloudy,110,2012-11-03 22:51:00
6:51 PM,73.0,59.0,61,30.02,10.0,SE,5.8,-,N/A,,Clear,140,2012-11-03 23:51:00
7:51 PM,71.1,57.9,63,30.04,10.0,Variable,3.5,-,N/A,,Clear,0,2012-11-04 00:51:00
8:51 PM,69.1,59.0,70,30.06,10.0,ESE,3.5,-,N/A,,Clear,120,2012-11-04 01:51:00
9:51 PM,68.0,59.0,73,30.05,10.0,SE,3.5,-,N/A,,Clear,130,2012-11-04 02:51:00
10:51 PM,66.0,60.1,81,30.06,10.0,Variable,4.6,-,N/A,,Clear,0,2012-11-04 03:51:00
11:51 PM,64.0,60.1,87,30.05,10.0,Calm,Calm,-,N/A,,Clear,0,2012-11-04 04:51:00